Location: Nianha
(10.8000°N, 4.6333°W)
Time: 03:30:49
(UTC+00:00)

Cosmos 1980 Rocket - Pass Details

Date: 14 November 2019
Orbit: 829 x 850 km, 71.0° (Epoch: 27 January)

Event Time Altitude Azimuth Distance (km) Brightness Sun altitude
Rises 05:49:46 0° 348° (NNW) 3,400 5.1 -6.4°
Reaches altitude 10° 05:52:14 10° 351° (N) 2,463 4.4 -5.8°
Maximum altitude 05:57:51 68° 74° (ENE) 903 2.7 -4.5°
Drops below altitude 10° 06:03:27 10° 157° (SSE) 2,453 5.3 -3.2°
Sets 06:05:54 0° 159° (SSE) 3,384 6.0 -2.6°
